This demonstration page uses our WeatherBlox Daily Observations layout. Learn more.

Left ArrowRight Arrow

41.55636, -103.73856

Hourly Observations for June 13, 2021

Temp ( °F °C ) Dew Point ( °F °C ) Humidity (%) Winds ( mph kmh ) Pressure ( in mb ) Visibility ( mi km ) Precip ( " mm )
12:58 am 00:58 Clear 70 20.9 59 15 69 69 S 28 44 29.92 1013 10 16 N/A
1:58 am 01:58 Clear 68 20.1 59 15 73 73 S 26 43 29.92 1013 10 16 N/A
2:58 am 02:58 Clear 67 19.7 59 14.8 73 73 S 24 39 29.93 1014 10 16 N/A
3:58 am 03:58 Clear 68 19.8 60 15.4 76 76 S 22 35 29.93 1014 10 16 N/A
4:58 am 04:58 Clear 65 18.4 59 14.8 80 80 NNE 3 6 29.98 1015 10 16 N/A
5:58 am 05:58 Sunny 65 18.3 58 14.6 79 79 S 15 24 30.00 1016 10 16 N/A
6:58 am 06:58 Sunny 66 18.7 58 14.2 75 75 S 5 7 30.02 1017 10 16 N/A
7:58 am 07:58 Mostly Sunny 70 21.2 62 16.9 77 77 S 22 35 30.02 1017 10 16 N/A
8:58 am 08:58 Sunny 73 22.9 61 16.3 66 66 SSW 14 22 30.04 1017 10 16 N/A
9:58 am 09:58 Sunny 78 25.4 62 16.6 58 58 S 10 17 30.04 1017 10 16 N/A
10:58 am 10:58 Sunny 82 27.5 63 17.1 53 53 SSE 9 15 30.03 1017 10 16 N/A
11:58 am 11:58 Sunny 84 29.1 61 16 45 45 SSE 14 22 30.01 1016 10 16 N/A
12:58 pm 12:58 Sunny 88 31.1 59 14.9 37 37 S 13 20 29.98 1015 10 16 N/A
1:58 pm 13:58 Sunny 91 32.5 58 14.5 34 34 S 15 24 29.96 1014 10 16 N/A
2:58 pm 14:58 Sunny 93 33.7 58 14.3 31 31 SSE 14 22 29.93 1014 10 16 N/A
3:58 pm 15:58 Mostly Sunny 91 33 52 11.2 26 26 SSE 9 15 29.93 1014 10 16 N/A
4:58 pm 16:58 Sunny 90 32.2 52 11 27 27 S 14 22 29.94 1014 10 16 N/A
5:58 pm 17:58 Partly Cloudy 85 29.5 52 11.3 32 32 SSW 7 11 29.96 1014 10 16 N/A
6:58 pm 18:58 Partly Cloudy 84 28.7 52 11.2 34 34 SE 9 15 29.93 1014 10 16 N/A
7:58 pm 19:58 Sunny 83 28.6 49 9.4 30 30 SSE 20 31 29.92 1013 10 16 N/A
8:58 pm 20:58 Clear 78 25.7 48 8.7 34 34 E 14 22 29.96 1015 10 16 N/A
9:58 pm 21:58 Clear 76 24.5 44 6.4 31 31 S 9 15 30.00 1016 10 16 N/A
10:58 pm 22:58 Partly Cloudy 70 21.3 50 10 49 49 ESE 13 20 30.04 1017 10 16 N/A
11:58 pm 23:58 Partly Cloudy 71 21.8 53 11.7 53 53 ESE 14 22 30.04 1017 10 16 N/A

Powered by AerisWeather